Temp
9 10 10 10 10 10 11 11 12 12 12 13 13 14 14 15 16 16 16 17 17 17 17 18 18 18 18 19 19 19 19 20 20 21 22 22 23 24 24 24 24 24 23 23 22 22 22
10 10 10 10 10 11 11 12 12 12 13 13 14 14 15 16 16 16 16 17 17 17 17 18 18 18 19 20 19 19 19 20 21 22 21 22 22 22 23 23 23 23 23 23 23 23 23
10 10 10 10 11 11 12 12 12 13 13 14 14 15 15 16 16 16 16 17 17 17 18 18 18 19 19 19 19 20 20 20 20 20 21 21 21 22 22 23 22 23 23 24 24 24 23
10 10 11 11 11 12 12 13 13 13 13 14 15 15 16 16 16 16 17 17 17 17 18 18 19 19 20 19 20 20 21 21 20 21 21 20 21 22 22 22 22 23 24 24 25 24 23
10 10 11 11 11 12 12 13 14 14 14 15 15 16 16 16 16 16 17 17 17 17 18 18 19 19 21 20 20 20 20 20 20 21 21 21 21 23 22 22 24 25 23 23 24 25 24
10 11 11 11 12 13 13 13 14 14 15 15 15 16 16 16 16 17 17 17 18 18 19 19 20 21 20 20 19 20 20 20 21 21 22 22 23 24 24 22 20 21 22 23 23 24 23
10 11 11 11 12 13 13 13 14 15 15 15 16 16 16 16 17 17 17 17 18 19 19 20 20 20 20 20 20 20 20 21 22 22 23 23 23 21 22 22 22 22 23 23 24 24 23
11 11 11 11 12 12 13 14 14 15 15 15 16 16 16 16 17 17 17 18 17 17 19 19 19 19 19 19 21 20 19 21 22 23 23 24 22 22 22 23 22 22 22 22 22 23 22
11 11 11 11 12 12 13 13 14 15 15 16 16 16 16 16 16 17 16 17 18 18 19 19 19 19 19 19 20 20 19 20 22 22 22 22 21 21 22 22 21 21 21 20 20 21 24
11 11 11 12 12 12 13 13 14 15 15 16 16 16 16 16 17 16 16 18 18 18 20 21 21 20 20 19 20 19 19 19 22 21 21 22 21 21 21 22 20 19 21 20 20 20 20
11 11 12 11 12 12 13 13 14 15 15 15 16 16 16 16 16 17 17 17 17 17 18 20 21 19 20 20 20 20 19 20 21 21 21 20 21 20 21 20 20 19 20 19 21 21 20
12 12 12 12 12 12 13 13 13 14 15 15 16 16 16 16 16 16 17 17 17 17 17 20 21 21 21 20 20 20 20 20 19 21 21 21 20 20 19 20 21 20 20 21 23 20 18
12 12 12 12 12 13 13 13 14 14 15 15 15 16 16 16 16 16 17 17 18 17 20 20 20 21 20 20 21 20 20 20 19 18 20 22 21 20 19 19 21 20 19 17 16 18 18
12 12 12 12 12 13 13 13 14 14 14 15 15 16 16 16 16 16 17 18 17 20 20 20 20 20 20 19 20 20 21 20 19 18 19 19 19 20 19 18 17 18 18 16 14 15 16
11 12 12 12 13 13 13 13 14 14 15 15 15 14 15 16 16 16 17 16 17 20 20 20 20 20 20 20 19 20 19 18 17 17 16 17 18 20 19 18 18 18 17 18 15 11 13
11 12 12 12 12 13 13 13 14 14 15 15 15 16 16 16 16 16 17 16 19 18 19 19 19 19 19 19 19 19 19 18 17 17 17 17 15 18 19 19 19 18 18 15 15 12 14
11 11 11 12 12 13 13 14 14 14 15 15 15 17 15 16 16 17 17 17 18 17 18 18 19 19 18 18 18 18 18 17 17 17 17 17 15 16 17 19 18 18 17 17 17 16 13
11 11 11 12 12 12 13 13 14 15 15 15 16 17 16 16 17 18 18 19 17 18 17 18 18 18 17 17 17 18 17 17 16 16 16 16 14 12 15 18 19 18 17 18 13 13 14
10 10 11 11 11 12 12 13 13 14 15 15 17 17 15 16 14 12 17 17 17 18 17 18 17 17 17 17 15 16 16 15 15 16 14 15 14 12 16 18 18 17 17 18 16 11 11
10 10 10 11 11 11 12 12 13 14 14 15 16 12 15 16 17 18 17 17 16 15 16 16 17 16 17 16 17 15 16 16 15 15 13 13 13 13 12 14 15 14 16 16 16 13 14
9 9 9 10 10 11 11 12 12 13 14 15 16 16 15 15 16 17 17 18 17 16 16 16 17 16 16 12 13 15 16 16 16 14 15 14 11 13 14 14 14 13 14 15 15 15 13
8 8 9 9 9 10 11 11 12 13 13 14 14 15 15 16 16 17 14 17 17 17 16 16 16 17 16 15 15 14 15 15 14 16 15 13 9 10 9 12 13 12 13 14 14 15 15
8 8 8 8 9 9 10 11 11 12 13 14 13 14 14 13 15 14 16 17 17 16 15 15 15 15 11 14 14 14 13 13 14 14 13 13 8 6 9 11 9 8 11 13 14 16 16
7 7 7 8 8 9 9 10 11 11 12 12 12 12 13 12 13 15 16 16 16 16 15 15 15 11 14 13 13 12 11 12 13 13 14 11 6 6 7 6 8 14 16 15 14 15 16
7 7 7 8 8 8 9 9 10 11 11 11 11 12 12 6 13 14 15 15 15 15 14 14 14 12 12 12 9 6 9 6 7 14 15 15 6 7 7 9 11 12 14 13 13 13 15
7 7 7 7 7 8 8 9 9 10 10 10 9 11 11 11 9 13 14 14 13 13 13 13 13 12 11 10 7 7 9 10 12 13 13 10 6 9 8 8 8 12 14 14 15 11 11
7 7 7 7 7 7 8 8 8 8 9 9 9 10 10 10 10 11 13 13 13 13 12 13 12 11 10 7 7 7 9 12 10 7 7 8 7 7 8 8 9 12 14 13 9 8 8
7 7 7 7 7 7 8 8 8 8 8 8 8 9 9 9 10 10 11 11 12 12 11 12 11 11 7 6 6 7 7 9 10 11 10 10 8 7 6 7 8 14 13 8 10 10 9
7 7 7 7 7 7 7 8 7 7 7 7 8 8 8 8 9 9 10 10 10 11 11 11 10 11 9 8 6 6 6 6 5 7 11 9 10 10 10 10 13 13 12 12 10 9 8
Height
1533 1532 1530 1528 1524 1521 1518 1516 1515 1514 1513 1513 1512 1513 1513 1513 1515 1518 1519 1521 1523 1523 1525 1527 1528 1527 1529 1527 1531 1531 1526 1525 1521 1521 1520 1517 1514 1511 1508 1509 1509 1508 1511 1513 1514 1514 1514
1535 1534 1533 1530 1527 1523 1521 1519 1517 1516 1516 1515 1514 1515 1515 1517 1520 1521 1523 1524 1525 1526 1526 1527 1529 1529 1529 1529 1530 1529 1529 1526 1524 1523 1521 1518 1517 1516 1514 1514 1511 1512 1512 1511 1511 1510 1511
1537 1535 1534 1532 1529 1526 1524 1522 1521 1520 1519 1518 1518 1519 1521 1522 1524 1525 1526 1527 1527 1528 1530 1530 1530 1530 1530 1531 1531 1530 1529 1527 1526 1524 1522 1520 1519 1518 1517 1513 1514 1512 1510 1505 1507 1508 1509
1539 1538 1536 1533 1531 1529 1528 1525 1524 1523 1523 1523 1523 1523 1524 1526 1527 1528 1528 1528 1529 1531 1532 1532 1531 1531 1531 1531 1530 1530 1528 1527 1526 1524 1522 1521 1520 1518 1516 1515 1512 1508 1503 1503 1500 1504 1506
1540 1540 1539 1537 1534 1532 1529 1527 1526 1526 1525 1525 1525 1526 1528 1529 1530 1530 1530 1531 1532 1533 1533 1533 1532 1530 1530 1531 1531 1530 1530 1528 1526 1523 1523 1521 1519 1516 1516 1512 1506 1502 1511 1508 1504 1497 1502
1541 1539 1539 1537 1535 1533 1532 1530 1529 1527 1527 1528 1528 1529 1530 1531 1531 1532 1533 1534 1534 1534 1534 1533 1531 1533 1532 1532 1531 1530 1529 1527 1525 1523 1521 1519 1516 1513 1510 1515 1529 1522 1518 1510 1506 1499 1501
1543 1542 1541 1539 1538 1536 1535 1533 1531 1529 1529 1530 1530 1531 1531 1533 1534 1535 1535 1536 1538 1537 1534 1533 1532 1531 1532 1533 1531 1531 1528 1526 1524 1521 1518 1516 1516 1522 1522 1520 1518 1515 1511 1508 1500 1498 1500
1544 1543 1542 1541 1540 1538 1537 1534 1533 1531 1531 1531 1532 1533 1534 1535 1536 1537 1537 1536 1535 1537 1537 1535 1534 1534 1533 1533 1531 1529 1528 1525 1523 1519 1517 1514 1519 1523 1522 1518 1519 1514 1510 1510 1507 1502 1502
1545 1545 1544 1543 1541 1540 1538 1537 1536 1535 1533 1533 1533 1534 1535 1536 1537 1538 1537 1536 1535 1536 1534 1536 1535 1534 1535 1534 1532 1532 1530 1527 1523 1519 1519 1520 1522 1523 1522 1519 1524 1519 1518 1519 1518 1506 1489
1547 1547 1547 1545 1544 1542 1541 1540 1538 1537 1535 1534 1533 1534 1535 1537 1540 1538 1539 1538 1538 1537 1533 1533 1532 1533 1534 1533 1532 1533 1531 1531 1523 1524 1523 1520 1522 1524 1522 1520 1526 1527 1516 1518 1515 1512 1514
1548 1547 1548 1547 1546 1545 1543 1541 1539 1537 1536 1535 1534 1534 1535 1538 1538 1539 1539 1539 1539 1539 1548 1536 1532 1535 1534 1534 1535 1532 1532 1530 1528 1527 1526 1527 1525 1527 1524 1526 1526 1526 1520 1515 1506 1505 1505
1548 1549 1549 1549 1548 1546 1545 1543 1541 1538 1537 1536 1535 1534 1536 1538 1538 1538 1539 1540 1540 1543 1548 1535 1534 1534 1532 1534 1534 1533 1532 1532 1531 1527 1524 1524 1528 1527 1529 1527 1522 1521 1513 1502 1492 1504 1519
1548 1549 1549 1549 1548 1547 1545 1543 1541 1539 1538 1538 1537 1536 1536 1537 1538 1539 1540 1540 1541 1545 1534 1534 1534 1534 1534 1534 1533 1534 1533 1533 1536 1538 1529 1519 1521 1527 1531 1527 1520 1522 1522 1527 1532 1520 1521
1548 1549 1550 1550 1549 1548 1546 1545 1543 1541 1539 1538 1538 1538 1537 1537 1537 1539 1540 1541 1548 1535 1531 1536 1535 1536 1535 1538 1535 1534 1531 1531 1538 1538 1532 1534 1535 1528 1530 1533 1535 1529 1531 1541 1553 1540 1534
1547 1549 1550 1550 1550 1549 1548 1547 1544 1541 1539 1539 1539 1540 1539 1538 1538 1540 1542 1546 1544 1534 1538 1536 1535 1535 1534 1538 1541 1535 1538 1541 1546 1546 1548 1545 1533 1527 1532 1534 1535 1530 1534 1530 1541 1549 1548
1546 1548 1549 1550 1550 1550 1549 1548 1546 1542 1540 1540 1540 1542 1541 1540 1540 1541 1543 1545 1538 1544 1542 1540 1540 1540 1538 1539 1540 1537 1539 1547 1547 1550 1549 1544 1551 1532 1530 1530 1526 1532 1530 1540 1540 1555 1542
1545 1547 1549 1550 1550 1550 1549 1548 1547 1545 1542 1541 1541 1541 1543 1543 1543 1543 1543 1544 1545 1548 1547 1544 1542 1541 1544 1545 1544 1542 1544 1549 1551 1550 1548 1546 1550 1544 1537 1524 1529 1530 1531 1531 1528 1532 1541
1543 1546 1548 1549 1549 1550 1549 1549 1548 1546 1544 1543 1542 1540 1544 1545 1544 1542 1541 1543 1548 1548 1548 1548 1547 1546 1547 1547 1549 1546 1548 1549 1555 1553 1549 1551 1554 1557 1540 1526 1525 1527 1527 1525 1543 1541 1533
1541 1544 1546 1548 1549 1549 1549 1549 1549 1548 1546 1545 1544 1545 1546 1546 1549 1552 1547 1550 1549 1547 1550 1548 1550 1552 1552 1551 1556 1551 1552 1555 1556 1555 1556 1556 1553 1555 1537 1526 1528 1530 1525 1522 1524 1534 1539
1539 1542 1544 1546 1548 1549 1550 1549 1549 1549 1548 1548 1547 1550 1549 1547 1545 1544 1546 1547 1552 1554 1554 1553 1552 1553 1551 1552 1550 1555 1552 1553 1555 1556 1557 1559 1557 1558 1560 1547 1538 1537 1529 1522 1522 1529 1518
1536 1540 1542 1544 1546 1548 1549 1550 1550 1550 1549 1549 1549 1549 1550 1550 1548 1546 1547 1547 1548 1552 1555 1555 1552 1553 1553 1563 1560 1556 1552 1551 1552 1551 1553 1556 1559 1553 1547 1543 1542 1540 1531 1520 1515 1510 1515
1534 1537 1540 1543 1545 1547 1548 1549 1550 1551 1550 1551 1552 1550 1551 1550 1551 1549 1553 1548 1549 1551 1553 1552 1555 1552 1554 1556 1557 1556 1553 1555 1555 1551 1549 1551 1559 1556 1555 1546 1540 1536 1529 1516 1511 1505 1498
1533 1535 1538 1541 1543 1545 1547 1548 1549 1551 1551 1552 1553 1553 1553 1555 1553 1554 1552 1551 1551 1554 1557 1557 1556 1556 1560 1558 1558 1558 1559 1557 1555 1552 1549 1549 1555 1562 1550 1545 1547 1544 1520 1510 1504 1499 1494
1531 1534 1536 1539 1542 1544 1546 1547 1548 1550 1551 1552 1553 1554 1555 1556 1556 1554 1552 1553 1553 1554 1555 1556 1557 1558 1559 1558 1558 1557 1555 1552 1548 1543 1542 1544 1554 1558 1553 1556 1544 1513 1502 1502 1499 1493 1490
1528 1531 1534 1538 1540 1543 1545 1546 1548 1549 1550 1551 1553 1554 1556 1559 1555 1555 1554 1554 1554 1554 1555 1556 1556 1557 1557 1558 1561 1564 1553 1555 1546 1537 1534 1534 1549 1552 1553 1539 1521 1518 1503 1501 1498 1493 1489
1524 1528 1532 1535 1538 1541 1543 1545 1547 1548 1550 1551 1553 1553 1555 1556 1554 1554 1553 1553 1553 1554 1555 1555 1555 1556 1557 1558 1565 1568 1558 1551 1544 1540 1537 1543 1548 1548 1545 1540 1526 1504 1500 1497 1492 1492 1492
1519 1524 1528 1531 1535 1537 1540 1543 1545 1547 1548 1549 1551 1552 1553 1553 1551 1552 1552 1552 1552 1552 1553 1554 1555 1556 1558 1561 1566 1565 1555 1546 1546 1553 1551 1547 1550 1550 1541 1537 1515 1500 1496 1494 1503 1502 1499
1513 1518 1522 1527 1530 1533 1536 1540 1542 1544 1546 1548 1549 1549 1551 1550 1548 1549 1550 1550 1550 1551 1552 1552 1556 1553 1557 1562 1563 1557 1556 1548 1542 1538 1539 1542 1545 1544 1540 1534 1515 1493 1494 1508 1500 1491 1490
1508 1513 1516 1521 1525 1528 1532 1535 1538 1541 1543 1545 1546 1546 1547 1547 1547 1544 1545 1546 1549 1548 1550 1549 1550 1549 1549 1553 1555 1554 1551 1549 1546 1540 1536 1538 1533 1526 1522 1511 1497 1495 1497 1492 1493 1488 1484
Wind_Speed
10 11 11 12 12 12 10 9 8 8 8 8 9 10 12 15 17 17 17 15 13 12 12 13 11 5 3 8 8 5 9 9 7 6 7 4 6 9 7 3 2 5 3 2 2 3 4
10 11 12 13 14 14 12 10 9 9 9 10 11 13 15 16 17 17 15 14 14 14 13 12 8 2 5 6 4 5 6 6 6 7 7 9 8 6 5 6 8 4 4 2 2 4 7
10 11 12 14 15 15 13 10 9 9 9 12 13 13 13 14 16 14 13 13 13 13 11 8 4 5 6 5 4 4 4 5 5 7 9 8 5 7 5 2 3 4 9 13 10 3 9
9 10 12 14 15 15 14 12 9 9 9 11 13 14 13 13 12 12 14 13 12 11 10 9 4 1 4 2 3 6 5 4 5 5 6 6 2 1 4 2 6 12 7 7 5 3 2
9 10 11 12 14 15 16 15 11 8 10 12 13 14 13 11 11 11 12 11 8 7 5 5 1 5 7 3 2 6 5 5 6 4 6 5 6 5 5 10 10 3 10 11 8 7 1
9 11 11 13 14 15 15 15 13 9 9 10 11 13 13 10 9 10 9 8 8 6 3 1 2 2 2 1 3 6 6 8 7 8 9 5 7 8 9 10 9 11 10 11 12 8 9
8 10 10 12 13 14 15 15 14 11 7 8 9 10 9 11 11 10 8 3 3 3 6 9 7 7 5 1 3 9 10 8 5 8 5 7 7 8 9 8 9 11 13 15 14 8 15
7 9 10 10 12 14 15 15 14 12 8 5 7 8 10 10 10 4 2 5 5 4 4 5 4 5 3 4 4 11 13 6 6 7 7 8 4 6 6 7 9 15 15 12 13 17 15
6 9 9 10 11 12 14 14 13 10 9 6 6 9 8 7 4 1 1 0 7 2 5 2 1 4 3 5 4 11 12 8 6 5 5 6 6 6 7 7 10 14 8 13 17 18 15
5 7 8 9 9 11 12 14 13 11 8 8 4 7 9 6 2 2 2 5 3 6 4 4 3 2 5 3 0 6 9 5 3 5 7 5 3 6 8 6 10 11 13 16 17 14 10
2 6 8 9 8 9 11 13 13 11 8 8 8 4 7 10 2 3 4 3 3 4 2 2 4 2 3 5 8 5 6 2 5 7 4 4 6 8 10 7 9 11 16 19 19 15 9
2 2 5 7 8 9 10 13 13 11 7 8 9 6 6 4 4 5 6 2 2 3 0 4 1 2 3 5 4 5 4 2 2 5 3 4 1 3 7 11 14 12 17 19 4 1 3
4 2 3 6 8 9 9 13 14 13 5 7 11 8 3 6 6 6 5 1 3 2 2 5 2 2 2 5 2 5 4 11 10 6 5 8 6 4 5 13 11 16 14 4 4 2 3
6 5 4 5 7 8 8 12 14 14 5 3 6 8 8 4 4 7 4 3 2 4 3 3 2 1 3 7 5 5 8 4 15 14 10 6 3 3 7 5 7 13 7 2 4 4 9
8 6 5 5 6 8 8 10 14 16 7 3 6 9 10 5 5 8 2 1 3 6 5 6 2 4 6 3 3 4 6 7 7 12 8 6 2 8 3 3 5 6 5 5 4 1 1
10 8 7 6 6 6 7 9 13 16 8 4 4 2 10 5 8 5 1 3 3 4 5 2 3 2 5 6 6 6 6 7 4 7 9 4 7 9 2 10 14 7 6 3 1 3 5
12 10 8 6 6 5 5 7 10 15 8 7 4 3 7 5 5 3 1 2 5 4 6 6 5 2 3 5 5 5 4 8 8 9 12 8 3 8 13 2 10 3 6 4 7 5 4
13 11 9 7 6 5 4 5 7 11 8 5 2 1 6 3 3 3 2 3 1 4 3 4 4 6 5 5 5 5 5 6 7 10 8 6 3 5 18 17 3 5 9 8 2 8 9
14 12 10 8 6 6 4 3 5 8 10 5 4 6 8 4 1 1 5 4 5 1 5 3 3 4 3 4 3 4 5 3 7 7 7 9 2 5 8 6 2 14 19 18 14 2 8
14 13 11 8 6 6 5 3 3 4 7 5 2 2 4 3 3 6 5 4 3 4 3 3 2 2 2 4 1 4 7 4 1 6 1 3 6 6 8 15 18 18 22 24 19 12 15
15 13 11 9 7 6 5 5 4 3 4 3 2 2 2 1 2 5 3 1 4 2 1 2 1 1 3 3 6 4 5 9 10 0 1 2 5 11 17 19 20 23 24 24 23 20 18
15 15 13 11 8 7 5 4 4 3 3 6 6 4 1 3 2 2 2 2 3 4 3 3 4 5 4 4 4 11 13 11 8 12 5 4 4 3 9 19 20 20 23 26 25 21 21
16 16 14 13 11 8 6 5 4 2 2 3 3 3 3 3 3 2 2 2 1 4 2 3 7 9 6 8 11 12 16 19 21 17 15 14 3 2 7 10 12 11 15 15 13 17 17
19 17 15 14 13 10 8 6 5 4 3 4 2 1 0 0 2 5 4 5 4 5 4 6 8 5 9 9 14 16 18 22 25 25 22 10 4 3 4 3 6 7 21 24 21 16 17
21 20 19 16 14 11 9 7 6 5 5 4 3 2 0 1 6 8 8 8 9 9 7 10 10 5 6 7 3 6 5 4 6 10 10 7 5 2 3 9 18 15 18 11 18 13 15
24 23 22 19 16 14 12 9 7 6 6 5 3 6 2 1 5 12 12 12 6 6 10 9 9 6 3 3 2 1 3 4 4 7 9 8 8 1 4 13 15 2 17 27 15 15 13
29 26 24 23 21 18 15 13 11 9 8 7 6 8 6 4 10 7 8 7 12 9 5 7 2 4 3 2 1 4 5 8 5 3 3 2 4 6 10 9 9 14 20 16 7 5 28
31 31 29 27 25 22 19 17 15 12 11 10 9 11 10 6 13 11 11 15 13 10 3 5 4 4 2 3 3 4 4 4 4 7 7 8 6 4 4 5 10 3 9 3 16 28 29
31 34 30 31 29 26 24 22 20 17 15 14 15 12 13 13 10 8 14 23 18 19 17 12 6 6 8 4 4 3 3 2 3 9 15 6 7 7 9 8 27 39 37 29 42 33 36
Wind_Direction
68 58 47 37 36 38 38 46 59 67 79 93 106 117 123 123 125 132 130 134 142 151 164 172 191 211 259 84 56 8 29 11 6 321 6 1 2 334 37 43 6 52 72 340 99 249 285
65 55 47 44 42 42 46 51 62 69 79 92 100 112 117 124 130 131 132 131 128 129 131 147 158 209 268 85 33 23 10 22 30 26 34 26 17 356 15 12 2 26 315 330 255 288 285
59 47 41 46 46 47 51 56 63 70 81 92 101 107 118 129 133 138 137 133 126 124 127 129 115 67 76 100 54 15 10 24 34 32 30 24 9 329 325 243 326 298 262 206 200 267 293
59 51 44 46 46 49 52 60 70 78 85 100 111 114 121 129 135 135 132 126 120 124 125 140 129 30 84 64 79 19 7 28 19 15 17 359 347 348 276 241 244 253 228 334 103 122 164
59 51 47 48 47 48 53 56 65 83 92 108 114 119 127 131 127 129 127 118 121 139 140 142 219 273 113 24 15 5 359 352 332 333 324 319 304 268 226 240 240 250 358 356 315 207 19
60 49 42 46 47 47 48 50 53 73 100 114 120 130 127 125 123 127 131 126 114 93 72 176 284 176 103 6 344 337 342 324 318 307 261 283 270 235 40 4 13 343 335 319 306 22 342
62 54 45 47 49 48 47 46 49 61 98 126 126 137 132 134 135 140 141 156 220 131 55 29 54 84 71 0 328 2 338 311 303 258 348 319 300 33 1 359 332 315 300 315 358 352 321
66 53 46 47 49 47 44 43 44 54 73 130 157 150 154 153 157 177 269 308 18 104 101 73 87 69 45 348 310 6 356 338 328 327 333 272 68 35 331 313 340 316 321 347 322 334 310
71 55 42 43 44 43 40 38 40 49 60 74 172 184 178 176 179 204 14 56 140 185 245 133 63 44 13 353 23 358 360 324 315 294 360 308 45 345 323 313 351 327 2 335 319 320 303
75 55 48 43 38 36 33 30 31 38 50 50 89 192 197 195 234 181 309 148 172 323 258 117 177 73 356 339 45 9 356 344 228 353 329 5 42 331 310 310 0 314 5 324 309 318 326
78 46 31 31 33 31 28 23 23 29 42 46 53 119 180 188 91 184 207 198 296 312 253 123 85 0 11 37 338 51 9 279 360 342 311 65 333 339 312 15 329 301 318 292 286 282 315
184 37 18 16 20 20 22 19 19 21 44 53 52 79 133 185 229 216 171 194 303 256 154 141 355 1 244 41 24 347 22 335 305 305 261 308 35 325 357 315 293 297 313 306 254 176 277
222 249 337 359 10 12 14 17 18 14 37 78 56 62 97 164 184 161 160 261 248 274 132 124 66 7 334 29 42 8 351 45 35 337 333 305 155 102 345 326 324 353 344 334 355 276 253
229 245 282 327 358 7 11 15 15 14 28 102 60 61 65 77 180 162 153 224 275 354 57 55 358 241 356 360 103 334 327 101 40 357 311 343 298 12 31 10 321 305 346 319 309 322 314
228 243 258 295 336 357 3 10 12 16 33 80 67 45 19 55 115 150 240 214 82 355 5 345 206 271 131 126 303 315 72 35 52 24 4 343 346 358 65 330 328 345 339 353 285 175 240
228 239 249 274 312 345 354 3 11 16 38 77 82 112 17 47 127 108 41 324 46 34 343 273 325 358 346 39 334 15 31 36 34 51 352 13 296 307 307 287 238 241 343 310 184 284 299
223 230 242 258 289 323 346 354 6 15 32 63 83 208 22 75 107 274 287 77 89 47 14 345 12 337 21 0 339 347 54 88 30 359 324 5 310 300 321 230 343 297 276 225 253 293 278
216 221 231 247 273 300 329 344 359 13 27 45 330 102 19 119 215 278 55 21 1 73 59 51 26 34 10 353 344 11 344 39 0 338 340 64 289 290 286 279 338 282 277 286 259 282 290
213 215 224 241 266 284 305 327 353 10 26 32 351 60 31 27 86 338 132 86 36 76 35 40 74 26 9 357 347 13 358 92 339 337 27 358 322 308 338 131 168 322 312 305 300 167 220
214 211 215 228 246 271 291 303 330 5 18 43 346 37 26 15 317 142 143 147 109 36 58 40 51 294 326 331 92 304 315 81 265 295 269 333 271 289 282 293 304 313 314 309 302 290 289
205 208 214 220 228 240 267 299 321 350 17 34 30 70 359 89 43 66 28 336 146 151 55 329 185 321 354 28 344 308 307 325 317 332 229 232 261 275 285 295 308 301 289 286 283 289 289
204 204 209 215 223 241 248 265 299 334 50 45 354 353 7 61 360 97 7 22 285 115 323 84 314 337 318 295 276 315 335 333 307 295 261 170 239 265 275 291 294 309 306 289 289 290 284
209 206 209 215 220 227 238 251 267 291 71 26 11 49 351 333 39 351 209 267 305 43 73 330 339 328 352 328 321 321 307 293 282 282 276 274 182 160 275 298 331 292 261 270 274 307 291
216 215 213 217 223 228 234 240 243 243 221 131 270 359 68 108 247 236 254 275 272 256 293 328 324 323 308 304 310 305 296 284 280 276 273 267 132 138 286 339 247 256 314 307 297 303 305
219 221 221 221 226 229 230 237 246 239 222 187 237 135 279 199 251 282 269 285 287 278 277 280 283 24 341 327 5 338 302 348 285 240 258 258 136 181 257 267 283 286 278 331 312 300 301
220 222 224 228 231 235 236 233 236 238 232 228 242 224 213 178 246 250 273 270 259 258 281 271 271 285 332 60 97 228 280 306 302 330 62 48 74 276 286 287 295 349 313 298 307 279 15
221 223 227 226 230 235 240 238 239 242 237 217 214 238 215 237 264 245 248 263 264 268 283 303 230 274 264 85 157 243 240 260 264 201 286 31 314 254 259 267 270 276 293 354 284 331 312
223 224 224 229 230 231 235 242 243 247 247 239 232 240 222 238 261 255 246 256 268 256 259 255 343 233 87 167 200 236 230 250 275 273 284 297 297 256 234 244 281 256 329 331 305 303 335
224 226 228 230 230 234 237 238 245 245 244 243 244 257 247 241 255 261 235 243 256 261 289 273 226 266 194 189 197 233 247 213 253 277 268 257 222 263 260 268 286 297 300 314 316 326 321